RH
57 56 55 53 51 50 49 46 43 39 36 33 31 29 29 29 27 26 23 19 17 18 19 19 19 19 20 21 22 23 24 25 27 28 29 31 31 32 33 33 34 34 33 32 31 29 27 26 25 24 24 25 24 25 27 28 31 33 36 39 42 51 62 74 90 83 50 35 39 37 34 37 33 26 27 29 26 29 29 26 30 35 32 26 17
58 57 56 55 53 51 50 48 45 41 37 34 31 31 31 31 30 27 23 21 19 19 20 20 21 20 20 22 23 23 25 26 28 29 29 30 32 33 33 33 35 34 34 33 31 30 28 26 26 25 24 24 24 25 27 28 30 30 32 36 36 40 52 64 81 92 71 45 41 40 33 37 38 29 30 35 32 34 35 32 36 41 41 37 28
59 59 58 56 54 52 51 49 47 43 39 36 33 33 33 33 31 27 24 23 22 22 23 22 22 21 21 23 24 24 26 27 28 29 30 30 31 33 34 34 35 34 34 34 31 30 29 27 26 25 25 25 24 26 27 28 30 31 31 34 36 36 41 52 67 82 81 61 48 45 40 38 38 33 34 37 38 43 44 40 43 48 48 47 41
60 60 59 58 56 54 53 50 48 46 42 39 37 36 36 34 32 29 28 28 26 26 27 25 23 23 23 24 24 25 27 28 29 29 30 31 31 32 33 34 35 35 34 34 33 31 30 28 27 26 25 25 25 25 27 28 28 30 31 31 34 35 37 45 55 67 83 82 61 48 46 43 38 36 39 42 42 48 53 49 48 53 54 53 50
62 61 60 59 57 56 54 52 50 48 45 42 40 40 40 38 35 34 34 32 30 30 30 28 26 24 24 24 24 26 27 27 28 29 30 32 32 32 33 34 35 35 34 33 33 31 30 28 27 26 25 24 25 25 26 28 29 29 30 31 33 36 38 42 48 58 81 91 72 52 48 47 42 39 44 51 50 50 55 55 56 60 59 59 58
63 62 61 60 59 58 57 55 52 50 47 45 44 43 43 42 42 42 40 36 34 34 33 31 29 26 26 26 25 25 27 27 28 29 30 32 33 33 35 36 35 35 35 34 33 31 30 29 27 26 26 24 24 26 26 28 29 29 31 32 34 38 40 43 49 56 68 77 73 65 57 52 52 47 45 56 62 59 57 59 63 66 67 68 67
64 63 62 61 61 60 59 57 54 51 49 47 47 46 45 45 46 48 47 44 39 37 36 35 32 30 28 28 26 25 26 27 28 30 30 31 33 35 36 37 37 36 35 34 33 32 30 29 27 26 26 25 24 26 28 28 30 30 31 34 36 40 43 44 52 61 66 69 74 76 68 60 61 57 51 58 66 64 62 67 71 71 73 77 77
65 64 63 63 63 62 61 59 56 54 52 51 51 50 49 48 48 50 52 49 44 41 39 37 36 36 33 29 27 26 26 27 28 30 31 31 33 36 37 37 37 36 36 34 32 32 30 29 28 26 25 26 26 27 29 29 31 31 32 35 38 40 43 47 56 67 73 78 80 79 76 71 65 61 59 63 67 65 67 77 82 79 79 84 90
65 65 65 65 65 64 63 62 60 59 58 57 55 53 53 52 51 53 52 50 48 46 43 42 43 41 38 34 31 28 27 28 28 28 29 31 35 38 39 38 38 36 35 34 33 32 30 29 28 27 26 26 27 28 29 31 32 33 33 36 39 41 43 49 61 73 81 86 85 80 82 81 71 67 68 67 71 73 74 80 85 86 89 93 97
65 66 66 66 66 65 65 65 65 65 63 61 60 58 56 55 55 56 54 53 53 51 50 52 51 45 41 40 36 32 29 27 27 28 29 33 37 40 40 39 39 38 35 34 34 31 30 29 27 27 26 26 27 28 29 31 33 33 34 36 39 42 45 51 61 74 84 89 87 84 88 86 74 70 71 69 74 79 79 83 90 94 99 99 93
65 66 66 66 67 67 68 69 68 68 66 64 64 63 62 62 60 58 58 58 56 55 58 60 57 50 45 41 37 32 29 27 27 28 31 36 40 41 42 41 40 39 37 35 34 32 31 29 27 27 26 26 28 29 30 32 32 33 35 37 39 42 46 53 60 71 81 85 83 84 91 88 75 71 73 73 76 80 82 91 98 99 102 102 95
65 66 66 66 68 69 70 71 72 71 69 68 67 66 66 67 66 64 63 61 58 59 63 61 57 53 47 42 37 32 28 27 28 29 34 41 44 43 44 43 41 40 38 36 35 33 31 30 28 28 27 27 28 29 31 32 32 34 35 36 41 43 45 51 57 64 73 80 85 87 88 87 80 73 73 73 76 84 92 98 102 101 100 101 100
65 65 66 67 68 69 71 72 74 73 72 71 70 69 70 70 69 68 66 64 61 61 62 59 57 56 52 46 41 33 30 28 28 32 39 44 46 47 47 46 44 43 40 37 35 33 31 30 29 28 27 27 29 29 31 31 31 34 35 36 39 41 43 47 51 58 65 75 87 85 75 78 81 72 68 74 82 94 101 100 100 101 100 100 101
66 66 66 67 67 69 71 72 74 74 74 74 73 74 74 72 70 66 64 67 67 66 65 61 59 59 54 48 43 36 31 29 30 36 43 49 50 50 51 49 46 45 42 38 37 34 31 30 29 28 27 27 28 29 31 32 33 34 35 36 35 35 37 39 43 52 60 66 75 72 63 69 76 67 67 81 94 100 102 100 100 101 101 100 101
67 66 66 67 68 69 71 73 74 75 75 76 76 76 76 75 72 68 66 68 68 67 67 63 60 58 54 49 45 39 33 31 35 38 45 58 64 55 51 53 49 46 44 40 38 35 31 29 28 27 26 26 28 30 31 33 35 35 34 32 31 30 30 30 34 43 49 52 58 59 54 58 69 77 84 96 103 101 97 99 102 102 101 101 99
67 67 67 68 68 69 71 73 75 76 77 77 78 78 78 76 73 70 70 70 69 68 66 63 61 60 58 53 47 42 37 35 38 39 45 69 83 69 56 57 54 48 46 43 40 36 31 29 27 26 26 26 27 30 32 34 34 35 34 31 30 30 27 25 31 37 39 42 46 49 54 64 80 91 92 89 87 83 86 96 100 100 101 101 96
67 68 68 68 69 69 71 73 75 76 78 78 79 80 79 76 73 72 73 74 74 72 68 66 64 61 59 57 50 45 43 39 39 43 50 71 91 89 78 74 67 58 52 46 41 36 31 28 26 26 26 26 28 30 32 34 34 36 38 36 35 34 27 24 30 34 35 39 42 46 53 62 68 67 61 58 60 67 87 100 96 95 102 102 96
66 67 67 67 69 70 71 73 75 76 78 79 80 80 80 79 76 72 72 74 75 74 70 69 68 63 60 60 54 48 45 40 41 50 56 65 81 88 85 83 78 68 57 49 42 36 31 27 26 26 25 26 29 31 32 34 35 37 40 43 45 39 27 26 33 35 34 38 39 40 41 42 43 44 44 49 54 64 85 96 90 94 104 102 97
61 62 63 65 69 71 72 74 75 76 78 78 79 81 81 80 80 76 73 74 76 77 75 74 75 73 69 65 61 54 48 42 45 55 60 64 71 73 71 73 73 65 57 50 43 35 30 27 26 25 26 27 30 32 33 34 36 36 40 49 52 39 28 33 40 41 42 45 43 42 42 41 44 46 46 50 56 63 76 83 86 96 105 102 100
55 58 62 65 69 72 73 74 75 76 78 78 78 81 81 81 83 82 79 78 79 81 81 80 81 82 78 73 70 65 55 48 50 56 61 65 67 66 65 67 66 61 56 51 43 35 30 27 25 24 26 29 31 32 33 34 35 36 39 45 44 36 34 42 45 46 52 53 49 49 50 48 49 50 51 56 61 67 74 79 85 94 102 104 103
54 57 62 66 69 72 72 74 74 75 77 78 79 81 83 83 83 84 84 84 86 87 88 87 85 85 83 77 72 67 57 50 53 59 64 67 67 65 66 67 64 60 57 51 43 35 29 26 24 24 26 29 31 32 32 32 33 34 34 35 34 34 41 47 48 50 55 54 54 57 56 53 54 56 59 63 67 72 78 82 87 94 101 104 103
55 57 61 65 69 72 73 74 75 76 78 80 80 82 83 84 84 85 85 87 89 90 92 92 89 87 85 80 73 65 57 54 58 62 66 69 69 68 69 68 65 62 58 51 42 35 29 26 24 24 27 29 30 30 30 30 30 30 29 29 29 32 41 48 50 53 55 57 62 65 59 57 60 62 65 70 74 78 83 85 90 96 100 102 103
57 59 62 66 69 72 74 75 76 78 79 80 81 82 83 85 87 87 87 90 92 92 93 94 93 90 89 86 78 68 62 62 65 67 70 71 72 73 72 69 67 64 58 50 41 34 30 26 24 25 28 29 29 29 29 28 28 27 27 27 29 33 41 47 49 52 57 62 67 67 63 62 66 68 71 75 78 81 85 89 93 97 100 102 103
60 61 64 67 70 73 76 77 78 80 81 80 82 83 84 87 89 88 89 92 92 92 94 94 93 92 92 90 83 74 70 71 71 71 73 75 77 77 75 71 68 66 58 49 41 35 30 26 25 27 29 29 28 28 28 27 26 26 26 26 29 34 41 45 48 54 61 65 67 68 66 64 67 71 75 78 82 86 90 94 97 99 99 100 100
63 64 66 69 72 74 77 80 80 81 82 81 82 83 85 89 90 89 91 93 92 92 93 92 91 90 90 89 85 81 81 81 78 76 78 81 81 80 77 73 70 65 57 48 42 35 30 27 27 29 30 30 29 28 27 26 25 25 25 27 31 36 41 45 50 58 64 66 66 67 66 65 69 74 78 83 88 92 94 97 98 98 98 98 98
65 66 68 71 74 76 80 83 84 84 83 83 82 82 84 87 89 89 91 94 93 90 88 88 88 87 87 87 86 87 90 88 81 79 82 85 84 82 79 76 71 64 57 50 43 36 31 28 29 30 31 30 29 28 26 25 25 24 25 28 32 36 42 48 54 60 64 64 64 65 66 68 73 78 84 90 94 95 97 99 100 99 98 100 101
67 69 70 73 76 79 82 85 86 87 86 85 84 83 83 85 87 87 88 94 95 89 83 83 85 85 86 88 88 90 94 90 84 83 86 86 85 84 81 77 70 63 56 50 42 35 30 29 30 31 32 30 29 28 26 24 24 24 25 28 32 36 42 49 55 59 61 62 63 66 69 73 80 85 90 95 97 96 97 100 102 101 100 100 102
69 70 72 75 79 82 84 85 87 88 88 87 86 85 84 85 86 84 84 90 93 85 79 81 82 81 83 86 89 95 98 92 84 82 84 84 84 83 80 74 67 60 53 45 38 33 31 31 33 34 32 30 29 27 26 24 24 25 26 28 31 34 40 48 53 55 58 62 66 70 74 79 86 92 96 98 98 97 98 101 102 101 99 100 102
72 73 75 78 81 84 85 86 86 88 89 88 86 85 83 83 84 82 81 84 83 77 74 76 77 75 78 83 89 94 95 86 75 73 79 82 83 81 77 70 62 55 47 39 34 33 33 34 35 34 32 31 29 26 24 24 24 25 27 29 31 34 40 48 54 56 59 66 70 74 79 85 92 97 100 101 99 98 100 101 100 99 99 100 101
77 78 80 81 83 86 87 88 87 87 89 89 88 86 84 82 81 81 81 81 78 72 69 71 72 73 77 82 82 79 76 72 69 73 81 85 84 82 76 67 57 48 40 35 35 36 37 37 36 33 31 30 28 25 24 25 25 27 27 28 31 37 43 49 54 59 64 69 72 77 83 91 97 100 102 102 100 99 100 99 98 100 101 101 101
81 83 83 83 85 86 88 89 88 87 88 89 88 88 87 87 85 82 80 81 79 73 69 71 74 75 77 81 81 77 76 77 76 78 83 86 85 83 74 60 49 41 35 35 37 39 39 38 35 32 30 29 28 26 26 26 28 31 31 28 30 38 46 51 56 62 67 70 74 81 88 94 100 102 102 101 100 100 99 98 98 100 100 100 101
83 84 84 85 85 86 87 88 89 88 89 90 89 88 89 92 94 90 84 81 79 76 75 78 81 79 77 80 83 83 86 87 83 82 85 86 85 77 62 48 42 41 40 40 40 38 38 37 33 30 29 29 28 26 26 28 30 33 35 35 35 39 48 55 60 65 69 73 79 86 93 97 101 102 101 100 100 101 100 100 99 100 100 100 100
83 83 84 86 86 87 88 88 88 89 89 90 90 88 88 92 97 96 92 87 83 81 82 84 86 84 81 82 83 84 85 86 86 87 86 81 74 64 51 44 44 44 42 41 42 40 37 34 31 29 29 28 27 26 27 29 31 33 36 40 43 45 51 57 62 66 70 75 83 91 96 99 101 101 100 100 101 102 101 100 100 100 100 100 100
83 82 83 84 86 87 87 87 88 89 88 89 90 88 87 89 90 91 94 97 96 94 92 90 89 88 86 85 86 86 86 87 89 89 83 70 60 53 49 48 50 48 45 43 42 39 35 32 30 29 28 27 27 27 27 29 31 32 35 40 46 50 54 58 63 67 71 78 87 94 97 99 100 100 101 103 103 101 101 100 100 100 100 100 101
86 84 82 83 84 86 86 86 87 88 88 89 89 88 87 87 86 85 90 96 99 100 100 98 96 94 92 90 89 89 89 89 90 89 79 65 55 54 55 55 55 54 52 49 42 36 33 31 29 28 27 27 26 27 28 29 29 32 37 43 48 51 55 58 62 67 73 82 91 96 98 99 100 101 103 104 103 101 101 101 100 100 100 101 102
88 86 85 84 84 84 85 85 85 87 88 89 88 87 86 86 85 86 89 92 94 96 99 101 101 99 97 93 90 90 90 90 89 85 75 64 57 55 56 55 53 53 50 45 39 35 32 30 28 27 28 27 26 27 28 28 29 33 39 47 52 53 55 60 63 68 76 87 95 98 98 100 101 102 102 102 101 101 103 103 101 101 101 101 102
91 88 87 86 85 85 85 85 85 85 87 88 87 86 86 87 86 87 90 93 93 94 97 100 101 101 101 98 92 90 90 89 85 80 73 66 61 55 49 45 45 46 44 39 35 32 30 28 28 27 27 26 26 27 28 29 31 35 41 48 53 54 55 59 64 71 82 92 97 99 99 100 101 102 102 102 102 103 104 103 102 102 103 103 103
93 90 88 87 86 86 86 86 86 85 86 88 88 86 86 88 88 89 91 94 93 93 97 101 101 101 102 101 97 93 92 90 88 84 80 74 67 59 51 45 42 41 38 35 32 30 28 27 27 27 26 26 26 27 28 30 32 38 43 48 50 51 53 57 65 76 89 96 98 98 99 101 101 101 101 102 104 105 105 104 103 105 106 104 102
95 92 90 88 87 87 86 86 87 86 87 89 89 88 88 89 90 90 92 93 93 94 98 101 100 98 100 101 99 96 93 91 89 87 83 77 67 58 52 49 45 41 38 34 31 29 27 26 26 26 26 26 26 27 29 31 34 40 44 45 46 47 50 57 69 83 93 98 98 97 99 101 101 100 101 102 103 105 105 104 103 105 106 104 102
96 94 92 90 89 89 87 87 87 88 89 91 91 90 90 90 90 91 91 92 93 94 97 99 98 96 97 98 97 94 91 89 85 81 76 70 63 56 52 48 44 40 36 31 28 25 24 23 24 25 25 26 27 28 29 32 36 40 42 43 43 45 50 61 77 89 96 98 98 98 100 101 101 100 101 101 100 100 101 100 100 103 105 105 105
97 96 94 92 91 90 89 89 88 88 90 91 91 91 91 90 90 91 92 92 92 93 95 98 97 94 95 96 93 90 88 85 82 77 71 65 59 53 48 43 38 34 30 26 23 22 21 21 23 24 25 26 27 27 30 33 36 38 40 41 42 45 55 70 84 92 96 98 98 98 100 101 100 101 102 99 96 94 95 95 97 100 104 105 106
98 96 95 94 93 92 91 90 90 91 92 93 91 91 91 90 90 91 93 93 92 91 94 97 95 93 94 95 93 90 88 86 83 79 73 66 59 52 45 40 34 27 23 21 20 20 20 21 23 25 25 26 26 28 31 33 35 37 39 39 41 51 66 79 86 90 95 98 98 99 100 100 101 102 100 97 94 93 94 94 96 100 103 106 106
98 96 96 95 94 93 92 91 92 94 95 93 91 91 92 91 90 91 92 93 92 92 93 95 96 95 95 95 94 93 92 89 85 81 75 69 62 54 48 42 32 23 20 20 20 21 22 23 25 26 26 25 27 29 31 33 35 36 37 38 47 62 75 80 83 90 97 99 98 99 100 100 101 101 98 95 96 95 94 94 97 100 104 106 105
98 97 96 96 95 94 92 92 94 95 94 92 91 92 94 93 93 92 92 93 93 93 93 93 95 97 97 96 96 95 94 91 88 83 77 71 65 59 54 45 31 21 19 20 21 22 24 25 26 26 25 26 28 31 32 33 34 34 35 44 59 72 76 77 83 92 99 100 99 99 100 101 101 100 97 96 98 97 94 94 97 101 105 106 103
99 97 96 96 95 94 93 94 96 95 93 93 94 96 96 96 95 94 93 93 94 94 93 92 93 96 98 97 95 94 92 91 89 84 79 73 68 63 55 41 27 20 20 21 22 24 25 25 25 25 25 27 30 31 32 33 33 32 40 55 68 72 72 77 88 97 100 100 100 100 102 102 100 98 97 98 98 95 93 95 98 102 106 107 104
98 96 95 95 95 94 95 96 95 93 92 95 98 99 98 97 96 95 94 94 95 95 95 93 94 96 96 95 93 91 90 89 87 83 78 72 65 56 43 30 22 22 23 23 24 26 25 24 24 24 25 29 30 31 32 32 31 36 51 67 70 67 71 83 93 98 100 102 102 102 102 101 98 97 98 97 94 92 93 96 98 102 107 108 107
97 95 95 96 94 94 95 95 94 93 94 97 100 101 99 97 97 96 95 94 95 95 95 94 95 95 93 91 89 88 85 83 80 75 67 58 49 39 30 25 24 25 24 23 24 25 24 24 24 25 27 29 29 30 31 30 32 46 64 70 66 66 77 90 96 98 100 103 103 102 102 99 97 96 96 93 91 92 94 97 99 101 105 107 107
97 96 96 95 94 95 97 97 97 97 98 99 100 101 99 97 97 96 95 95 95 95 94 95 95 94 91 88 86 83 79 75 69 61 51 42 35 29 27 27 27 25 24 24 24 23 23 24 25 26 28 28 28 29 29 30 40 58 69 66 63 71 85 93 96 99 103 104 103 101 100 97 95 94 94 91 91 94 96 97 98 101 103 104 104
97 96 96 96 96 97 99 99 99 100 100 100 100 100 99 97 97 96 96 96 95 94 94 94 94 92 88 85 82 78 73 66 58 49 41 35 31 29 29 29 28 27 26 25 23 23 23 24 25 27 27 28 28 29 29 34 50 65 66 61 65 79 89 93 97 102 104 103 101 100 98 95 93 92 92 91 91 94 95 95 97 102 104 103 102
98 98 99 100 100 99 99 98 99 100 100 100 100 100 100 98 97 96 96 96 96 95 94 93 92 90 87 83 79 74 68 60 52 44 38 34 31 30 30 29 28 27 25 23 22 23 23 24 25 27 27 27 28 28 30 42 59 66 60 60 72 85 89 92 98 103 103 101 99 96 94 92 90 90 90 90 91 92 92 93 98 102 103 101 100
100 100 101 101 101 100 99 100 101 102 101 100 99 99 99 97 96 96 96 96 96 95 94 93 91 89 85 80 76 71 65 57 49 43 38 34 31 30 29 28 27 25 23 22 22 22 22 24 25 26 26 27 27 27 35 51 63 61 57 65 80 86 86 91 99 102 100 99 96 92 90 90 88 87 88 88 89 90 91 94 98 100 100 99 99
Wind_Speed
34 34 34 34 35 36 37 37 36 37 37 37 37 38 38 38 38 38 39 40 41 42 42 42 42 41 41 40 39 37 36 35 34 33 31 30 28 26 25 23 21 20 18 17 15 14 12 11 10 9 8 7 6 6 6 7 7 8 8 9 10 10 13 15 15 21 34 34 32 37 39 38 39 40 41 43 43 40 39 38 36 35 35 36 37
33 34 34 34 35 36 36 37 37 38 38 38 38 38 38 38 38 38 39 40 41 42 43 43 42 42 41 40 39 38 37 36 35 34 33 31 29 27 25 23 22 21 19 17 15 14 13 11 10 9 8 7 7 7 7 8 8 9 10 10 13 12 13 18 18 18 29 37 36 38 40 37 39 42 41 42 44 42 39 39 37 35 34 35 36
34 34 34 35 35 35 35 36 37 38 39 39 39 39 39 38 38 39 40 40 41 42 43 43 42 42 42 41 40 39 38 37 36 35 33 31 30 28 26 24 22 21 19 17 15 14 13 11 10 10 9 8 8 7 8 9 9 10 12 12 14 15 14 17 20 19 25 35 38 37 40 40 40 42 42 42 42 40 39 39 36 34 34 34 34
34 35 36 36 36 36 36 37 38 38 39 40 40 40 40 39 39 39 40 40 41 42 42 42 42 42 42 41 41 40 39 38 37 35 33 31 30 28 26 24 22 20 18 17 15 14 12 11 10 10 10 9 8 9 9 10 10 11 12 13 14 16 16 16 20 22 24 31 38 38 39 41 42 42 42 41 40 38 37 37 36 34 33 31 33
34 36 37 37 37 37 38 38 39 40 40 40 40 40 39 39 39 39 40 40 41 42 42 43 43 43 43 43 42 41 40 39 38 36 33 31 29 26 24 23 21 20 18 16 15 14 12 11 11 11 11 10 9 10 10 10 11 12 13 15 15 16 18 18 20 23 25 30 38 41 39 39 42 43 38 36 40 41 38 34 32 32 32 33 34
34 36 37 38 38 39 39 40 40 41 41 41 40 39 39 38 39 39 39 40 41 42 42 43 44 44 43 43 42 42 41 39 37 35 33 31 28 26 23 22 21 20 18 16 15 14 13 12 12 12 12 11 10 10 11 11 12 13 14 15 16 17 19 21 21 22 26 30 35 39 39 38 39 42 37 32 35 40 40 38 33 28 29 33 36
35 36 37 38 39 40 41 42 42 42 42 41 40 40 39 39 39 38 38 39 40 42 42 43 43 44 43 43 43 43 41 39 37 35 33 30 28 26 24 22 21 20 18 16 15 15 14 13 13 13 12 12 11 11 12 12 13 14 15 15 17 18 20 22 22 22 25 29 31 33 36 36 36 39 38 34 32 32 32 36 39 36 33 34 36
35 36 37 38 40 41 41 42 42 42 41 40 39 39 39 39 39 38 38 39 40 41 42 43 42 42 42 43 43 42 41 40 38 35 33 30 28 26 25 23 22 21 18 17 15 15 15 14 13 13 12 12 13 13 13 14 14 15 15 16 17 19 21 22 23 24 24 27 30 31 32 34 35 37 37 32 30 29 27 29 36 40 40 38 36
35 36 37 39 40 40 40 40 40 39 39 39 39 39 39 39 39 39 39 40 40 40 41 41 41 41 42 42 41 41 40 40 38 36 34 31 29 27 25 24 23 21 19 17 16 16 16 14 13 12 13 13 14 14 14 14 15 16 17 17 18 20 21 23 24 24 24 25 29 29 28 30 32 34 34 30 28 31 34 32 33 36 39 43 41
35 36 37 38 38 38 38 38 38 37 37 38 38 39 40 40 39 39 40 40 40 39 39 39 39 41 41 41 40 40 40 39 38 36 34 32 30 28 26 24 23 21 19 17 16 17 16 15 13 13 14 14 14 15 15 15 16 17 17 18 19 20 21 24 25 25 24 24 27 27 25 29 31 31 32 34 32 32 34 33 33 37 38 39 41
35 36 37 37 36 36 36 36 36 37 38 38 38 38 38 38 39 40 40 40 39 39 38 38 39 40 40 41 40 40 40 39 38 35 33 31 29 27 26 24 23 22 20 18 17 17 17 16 14 14 15 15 15 15 15 16 16 18 19 19 20 20 21 23 26 25 24 25 27 26 25 30 35 33 33 36 34 32 33 32 32 38 38 29 28
34 35 36 35 34 34 35 35 35 36 37 38 38 38 37 37 38 39 40 40 41 40 38 38 39 40 40 41 41 41 41 39 38 35 33 31 29 27 25 24 23 22 20 18 17 17 17 17 16 16 16 15 15 16 16 16 17 18 19 19 20 20 21 22 25 26 26 27 29 29 29 32 36 36 34 34 35 34 35 34 32 36 37 29 24
34 34 34 34 33 34 34 34 35 36 36 37 37 37 38 38 39 40 40 40 41 41 40 40 40 40 41 41 41 41 40 39 38 36 34 31 29 27 25 24 23 22 20 18 18 18 18 17 17 17 15 15 16 16 16 17 18 18 19 20 20 21 21 22 24 26 27 28 31 34 34 33 35 38 35 33 36 38 37 39 38 35 33 30 30
33 33 33 33 33 33 34 34 35 35 35 36 36 36 38 40 41 42 41 40 41 41 42 42 42 42 42 42 42 41 40 39 38 37 34 31 30 28 26 25 24 22 20 19 18 18 18 17 17 16 15 15 15 16 17 17 18 18 19 21 22 21 22 23 24 25 27 28 32 37 38 35 35 39 39 34 34 36 36 38 39 36 37 37 37
32 32 32 33 33 33 33 34 34 34 34 35 36 36 38 39 41 42 42 42 42 42 43 43 44 45 44 43 42 41 41 40 39 37 34 30 28 28 26 24 24 22 21 19 19 19 17 16 16 15 14 14 14 15 16 17 18 19 21 22 23 23 23 24 25 26 27 28 31 35 37 36 35 37 37 34 33 33 34 35 36 38 41 40 37
31 31 32 32 32 33 34 34 34 34 34 34 35 36 38 40 41 42 41 41 42 43 44 44 45 45 44 43 43 42 42 41 39 37 34 30 27 26 26 25 24 23 22 20 20 19 17 15 15 15 14 13 14 14 15 16 18 20 22 23 24 25 25 26 26 27 29 30 31 33 34 34 33 32 33 33 34 35 37 37 36 33 32 30 31
30 31 32 33 33 34 34 34 34 33 33 34 35 36 38 40 41 41 41 41 41 42 44 44 44 44 44 44 44 44 43 41 39 37 35 31 28 26 26 25 24 24 22 21 20 19 17 15 14 15 15 14 14 13 13 15 18 20 22 24 26 28 28 27 27 28 29 30 31 33 33 33 32 33 34 34 34 35 35 35 34 30 25 20 20
30 32 34 35 34 34 34 34 34 34 34 35 35 35 36 39 41 42 43 42 41 42 43 43 42 43 44 45 45 44 42 40 39 37 35 33 31 29 28 26 25 24 23 21 20 19 17 15 14 15 16 15 14 13 13 15 17 20 22 23 27 31 31 30 30 31 30 29 30 30 31 33 33 35 35 34 33 32 29 30 31 29 26 21 17
32 33 35 34 33 32 33 34 34 34 35 36 35 35 35 37 39 41 42 40 39 40 42 41 41 41 43 43 42 41 40 39 38 37 36 34 33 31 29 28 27 25 23 21 21 20 19 16 15 15 16 16 14 14 14 15 17 19 20 22 27 31 31 31 32 33 32 31 31 31 33 34 34 35 36 34 32 30 26 27 28 26 26 26 23
32 32 32 31 31 32 33 34 35 35 35 35 34 33 34 35 36 38 39 37 36 37 40 40 40 39 40 40 39 38 38 37 37 37 36 34 33 32 30 29 28 27 24 23 23 22 19 17 15 14 15 15 14 14 15 15 17 19 20 23 28 31 31 31 32 32 32 32 33 34 35 35 35 35 35 34 32 30 27 26 25 24 24 25 26
29 30 30 29 30 31 33 34 35 36 35 34 32 31 32 34 35 36 36 34 33 34 36 38 38 37 38 39 38 37 37 37 37 37 36 34 33 32 31 30 29 27 24 23 23 23 20 17 14 13 14 15 14 15 16 17 18 20 22 24 27 29 30 32 31 29 30 32 33 34 35 36 36 35 34 33 32 30 28 27 26 24 23 24 27
27 28 29 29 30 31 32 33 34 34 33 31 31 30 30 32 34 35 34 32 32 33 34 35 36 36 36 37 38 38 37 38 38 37 36 34 33 32 32 30 28 26 24 24 25 23 20 16 14 13 14 15 15 16 18 18 19 21 22 23 26 27 27 28 28 28 30 31 32 33 35 34 34 34 32 31 31 29 29 28 26 25 24 24 25
26 27 28 29 30 30 31 32 33 33 32 31 31 30 30 31 32 34 33 32 32 33 33 34 35 36 35 36 38 38 38 38 38 37 35 34 33 32 31 30 28 26 24 25 26 23 19 16 14 14 14 15 16 18 18 19 20 21 21 23 24 24 24 24 25 27 28 29 30 32 32 32 32 32 31 30 31 30 29 27 26 24 24 25 25
23 26 27 28 29 29 30 31 32 32 32 31 31 30 30 30 31 32 32 32 34 36 34 35 36 37 36 37 38 40 40 38 37 36 35 34 33 32 30 30 28 26 25 26 25 23 19 17 15 15 15 16 17 18 18 19 20 20 21 22 22 20 20 22 23 25 27 28 29 29 30 30 30 30 31 31 30 30 28 26 25 25 26 26 27
23 25 26 27 28 28 29 30 31 31 31 32 32 31 30 31 31 31 31 31 35 38 37 37 39 40 39 40 40 41 40 38 36 36 35 34 33 31 30 30 28 26 26 26 25 22 19 17 16 16 16 17 18 18 18 18 19 20 20 20 19 18 18 20 22 23 25 27 27 28 29 30 29 29 30 29 28 28 27 27 27 28 27 28 28
24 24 25 26 26 27 28 28 29 30 30 32 33 32 32 32 31 31 31 30 35 41 39 36 39 41 41 42 41 39 38 37 36 36 35 34 33 31 30 29 28 26 26 26 25 23 20 18 18 17 17 18 19 18 18 18 18 19 19 17 16 16 17 19 21 22 24 26 27 28 29 30 30 28 27 27 26 26 27 28 29 29 28 28 30
24 24 25 25 25 26 28 28 28 29 29 31 31 30 31 32 30 31 31 28 32 38 37 33 34 36 37 40 40 37 36 37 37 38 37 35 34 32 30 29 28 27 27 27 26 24 21 19 18 18 18 19 19 18 18 18 18 18 18 16 16 17 18 19 20 21 23 25 26 27 29 29 28 27 26 26 25 26 26 27 28 28 28 28 28
25 25 25 24 25 26 27 28 28 28 29 30 31 30 31 31 30 32 33 31 33 37 35 31 31 33 35 39 39 35 34 37 40 41 40 37 35 33 31 30 29 28 28 28 26 24 22 20 19 19 19 20 19 18 18 17 18 18 17 16 16 17 18 19 20 20 21 23 25 27 28 27 26 25 25 25 25 26 26 26 25 27 28 27 24
24 24 24 24 24 25 26 27 28 28 28 29 30 31 32 33 33 32 33 34 37 40 38 34 34 36 36 37 38 37 37 41 44 42 39 37 36 34 32 30 28 28 28 27 25 23 22 21 20 20 20 20 19 18 17 17 17 17 17 17 17 18 19 19 20 21 21 22 24 25 26 25 25 25 24 25 25 25 25 25 24 26 27 25 22
23 23 23 24 25 25 25 26 27 27 27 27 27 27 28 31 33 32 32 34 38 40 39 38 37 36 32 32 36 40 40 40 40 38 36 35 34 33 30 27 25 24 25 25 24 23 22 21 21 20 20 20 19 18 17 17 18 18 17 17 18 19 20 20 20 21 21 22 23 23 23 23 24 24 24 24 25 25 24 24 24 24 24 23 23
23 23 23 25 26 26 26 26 27 27 26 26 26 25 23 25 30 32 32 32 34 38 38 34 32 32 30 29 32 35 33 31 31 32 32 32 31 30 27 24 22 22 23 23 23 23 22 21 21 20 19 19 19 18 17 17 18 19 18 19 19 20 20 21 21 21 21 21 21 21 21 21 22 23 23 23 24 25 24 24 24 23 22 22 22
24 23 24 25 25 26 26 26 26 26 25 24 26 25 22 20 21 26 29 30 31 34 35 31 27 28 30 28 28 30 29 26 25 25 24 24 26 26 23 21 20 20 21 21 22 23 22 22 21 20 19 19 18 17 17 18 18 18 18 20 20 20 21 21 21 20 20 20 20 19 19 19 20 21 22 22 23 23 24 23 23 23 23 23 22
26 24 23 24 24 24 25 25 25 25 25 24 25 25 23 20 19 20 23 25 26 29 32 30 26 25 27 28 27 28 29 27 24 21 18 18 20 21 21 21 21 21 21 22 23 23 22 21 21 20 19 19 18 17 17 18 17 17 18 19 20 21 21 20 20 20 19 18 18 17 17 17 18 19 21 21 21 21 22 22 22 22 22 23 23
28 26 25 25 25 25 25 25 25 25 25 25 25 25 24 24 23 22 21 22 23 25 28 29 27 24 25 27 27 27 27 26 23 20 17 17 19 20 21 21 21 21 22 23 24 23 21 21 21 20 19 19 18 17 18 17 17 17 18 19 20 21 20 20 19 19 18 17 17 16 16 16 17 19 20 21 21 20 20 20 21 22 22 22 23
27 26 25 25 26 26 25 25 25 24 24 24 25 24 23 24 24 23 23 23 24 23 23 25 26 25 25 26 26 26 25 24 22 20 19 19 20 22 23 23 23 23 24 24 24 23 22 21 21 20 19 18 18 18 17 17 17 17 18 19 20 20 20 20 19 18 17 17 16 15 14 15 16 18 19 19 20 20 20 20 20 21 21 22 23
26 25 24 24 25 25 25 25 25 24 24 25 25 23 23 23 22 22 22 23 23 22 20 21 23 23 24 24 25 25 24 23 21 21 21 21 23 25 26 27 27 28 28 27 25 24 22 22 21 20 19 19 18 17 17 17 16 17 17 18 19 20 19 19 18 17 16 16 15 14 13 15 16 17 18 19 19 19 19 20 20 20 21 22 22
25 24 23 23 23 23 23 23 23 23 23 24 24 22 21 21 22 21 21 22 22 21 20 21 22 22 23 24 24 24 23 22 21 21 21 22 24 26 28 29 29 28 28 27 25 23 22 22 21 20 19 19 17 16 16 16 16 16 17 18 18 19 19 18 17 16 15 15 14 13 13 15 16 17 17 18 19 19 19 20 20 21 22 22 22
23 23 23 23 23 22 22 22 22 21 20 21 22 22 21 20 21 21 21 21 22 21 20 22 24 24 24 24 25 25 23 22 22 23 24 26 28 29 29 29 27 27 26 25 24 23 22 22 21 20 19 18 17 15 15 15 15 16 17 17 18 18 18 17 16 15 14 14 13 12 13 15 16 16 16 17 19 19 19 19 20 22 23 23 22
19 19 21 22 22 22 22 21 21 21 20 20 21 22 21 20 20 20 20 21 21 21 21 23 24 24 24 25 27 27 26 26 26 27 29 30 31 31 31 30 28 28 28 26 24 24 24 23 21 20 19 17 15 15 14 15 15 16 16 17 18 18 17 16 15 14 13 13 12 12 13 15 15 15 17 17 18 18 18 19 20 21 22 23 24
17 17 19 21 22 22 21 21 21 21 21 20 21 21 21 20 20 21 21 21 21 21 22 23 24 24 25 28 31 31 30 29 29 30 31 33 33 32 32 32 31 31 30 28 26 25 24 23 21 20 17 15 14 14 14 14 15 16 16 17 17 17 16 15 14 13 13 12 12 12 13 14 15 16 17 17 16 16 16 18 19 20 21 23 24
16 17 19 21 21 20 20 20 20 21 21 21 20 20 20 21 21 21 21 21 22 21 21 22 25 25 26 29 33 35 33 31 30 31 32 33 34 34 33 33 33 32 30 28 27 25 24 22 20 18 15 13 13 13 14 14 15 15 16 16 16 16 16 14 13 13 12 11 12 13 13 14 16 17 18 17 15 15 15 17 18 20 22 23 24
16 18 19 21 21 20 19 19 19 19 20 20 19 19 20 21 20 20 20 21 22 22 20 21 24 26 27 29 32 34 32 29 29 30 31 32 32 34 34 33 32 30 28 26 25 23 22 20 17 15 13 13 13 13 13 14 14 15 16 16 15 15 15 14 12 12 11 11 12 12 13 15 16 17 17 16 15 15 16 17 18 20 22 23 24
16 18 19 20 20 20 18 18 19 20 21 20 19 19 20 20 20 21 20 20 22 22 21 20 22 24 26 29 31 33 32 29 28 29 30 31 32 34 34 32 29 27 26 24 23 21 20 17 15 13 12 12 12 13 13 13 14 15 15 15 15 14 14 13 12 11 11 11 11 12 14 16 17 16 15 14 14 15 15 16 18 20 21 23 24
16 17 17 18 19 18 17 18 20 21 21 20 18 19 19 19 20 20 20 20 21 22 21 21 21 22 24 27 30 32 33 32 30 30 30 30 32 33 32 29 26 25 24 22 20 18 17 15 13 12 12 12 12 12 13 13 14 14 14 13 13 13 13 13 12 11 11 11 11 13 15 16 16 15 14 13 14 14 15 16 18 20 22 23 24
15 16 17 17 17 17 16 18 19 18 18 18 18 18 19 19 19 20 20 20 20 21 21 22 22 22 24 27 30 33 35 34 33 32 31 32 33 32 29 25 24 23 21 18 16 15 15 14 12 12 12 12 12 12 13 13 14 14 13 12 13 13 12 12 11 11 11 11 12 14 16 16 14 13 13 13 13 13 14 16 18 19 21 23 23
15 17 17 17 17 16 16 17 18 18 18 18 18 18 19 19 19 20 20 20 20 20 21 22 23 23 25 28 30 32 33 33 32 32 33 33 32 29 25 23 22 20 18 15 14 14 13 12 12 12 11 11 12 12 13 13 13 12 12 11 12 12 11 11 11 10 10 11 12 14 15 14 13 12 12 12 12 12 13 15 17 18 20 22 22
15 17 17 18 17 16 16 18 18 18 19 19 18 18 18 19 19 20 20 20 20 21 21 21 22 24 26 28 30 31 32 31 31 31 31 30 27 24 22 22 20 18 16 15 14 13 12 12 12 12 11 11 12 12 12 12 12 11 11 11 11 11 10 10 10 10 10 11 13 14 14 13 12 12 11 11 12 12 13 15 16 18 19 20 21
15 16 16 17 16 16 17 18 18 18 19 19 17 17 18 19 19 19 20 20 21 21 21 20 21 24 26 27 29 30 30 30 30 29 27 25 23 22 21 20 19 17 16 15 13 13 12 12 12 12 12 12 12 11 12 12 11 10 10 10 10 10 10 9 9 9 10 11 13 13 12 12 11 11 11 11 11 12 14 15 16 18 19 20 21
15 15 16 16 16 17 18 18 19 20 20 18 17 17 18 19 19 19 20 20 21 22 22 21 21 23 26 27 27 28 28 28 28 27 25 23 22 21 21 19 18 17 16 14 13 13 12 13 13 12 12 12 11 11 11 10 10 9 9 10 10 9 9 9 9 9 10 12 12 12 11 11 10 9 9 10 10 11 13 14 15 17 19 19 21
14 15 16 16 16 17 16 17 18 19 19 18 17 17 18 19 19 20 20 21 21 22 22 22 22 23 25 26 26 27 28 28 27 25 23 22 21 21 20 19 17 16 15 14 13 13 13 13 13 12 12 11 11 11 10 9 9 9 9 9 9 9 9 9 9 10 10 11 12 11 10 10 9 8 8 9 10 11 12 13 14 17 18 19 20
13 15 15 15 16 16 16 16 18 19 19 18 18 18 18 19 20 20 21 21 21 21 22 22 23 23 25 26 27 27 27 27 26 24 23 22 21 21 20 18 17 16 15 14 14 14 14 14 13 12 11 11 11 10 9 8 8 8 8 9 8 8 8 9 9 10 10 11 11 10 9 9 8 8 8 8 9 10 11 13 14 16 17 17 18
Wind_Direction
209 209 210 211 212 214 215 216 216 216 216 216 216 216 215 214 212 211 209 207 204 202 201 201 199 198 197 197 197 195 193 193 192 192 191 191 192 192 191 190 189 190 190 189 189 190 193 195 200 211 214 221 236 246 253 259 263 263 261 265 263 256 253 244 240 275 293 300 304 308 313 316 318 322 323 322 324 327 328 330 332 332 333 333 333
210 211 211 212 214 215 215 216 216 216 215 215 216 217 216 214 213 211 210 208 206 203 202 202 201 200 199 198 198 197 196 195 193 193 194 193 192 192 193 192 191 192 192 193 194 193 197 200 205 217 224 228 239 249 256 261 266 272 273 272 274 269 259 255 251 263 288 299 303 307 312 315 315 319 321 319 321 324 325 327 329 328 329 330 329
212 212 212 214 215 216 216 216 215 215 214 214 215 215 215 214 214 213 212 209 206 204 203 203 202 201 200 200 199 198 197 196 195 195 196 196 194 193 194 194 195 196 195 195 197 198 202 205 210 222 232 238 245 250 256 264 269 275 280 278 279 281 273 264 261 260 277 293 300 305 310 312 312 315 318 317 319 321 321 323 325 325 325 326 326
213 212 213 214 215 215 215 215 215 214 213 213 214 215 215 215 215 214 212 208 205 203 203 203 203 202 202 201 200 199 198 198 197 197 197 197 197 197 196 196 198 200 198 197 200 204 207 210 216 228 239 245 251 255 257 265 272 276 281 283 283 286 284 275 269 268 273 286 295 300 305 308 310 313 316 318 319 319 318 320 322 322 323 324 323
214 213 213 213 214 214 215 214 214 213 213 213 214 215 214 214 214 213 211 208 206 203 203 203 204 203 203 202 201 200 200 200 199 198 197 198 199 200 199 199 201 201 200 200 204 209 213 215 220 230 243 251 255 261 264 268 275 279 284 287 289 289 287 283 278 277 273 277 289 298 303 307 310 313 316 318 319 319 318 319 321 321 322 322 321
215 214 213 212 212 213 213 214 214 213 213 214 214 214 214 213 213 212 211 208 206 204 203 204 205 205 204 203 202 202 202 202 201 199 198 198 199 200 200 202 205 204 203 204 208 214 218 221 226 234 245 256 260 264 270 273 278 284 288 291 293 292 289 288 286 284 280 279 286 295 301 306 310 312 315 318 317 318 321 321 320 320 321 321 320
216 215 214 213 213 214 213 214 215 214 214 214 214 213 213 213 213 212 210 208 206 205 204 204 205 205 205 204 204 203 202 202 201 200 199 198 198 199 200 203 207 207 207 208 212 220 225 226 232 240 248 259 266 269 274 279 282 286 290 293 295 294 292 293 292 288 286 286 288 291 298 305 307 307 312 317 316 316 321 322 320 319 321 321 320
216 215 214 214 215 215 215 216 216 215 214 213 213 212 212 212 212 211 210 209 208 207 206 205 205 205 205 205 205 204 203 202 201 201 200 200 199 200 202 205 208 210 209 212 217 223 230 234 237 246 254 260 268 272 276 282 285 288 292 296 296 295 295 296 294 291 289 289 290 292 298 303 305 306 311 318 320 319 320 319 313 314 320 320 318
217 216 215 216 217 217 217 216 216 215 213 212 211 211 211 211 211 210 210 209 209 209 208 206 205 204 204 205 205 204 204 203 203 202 201 200 200 202 205 207 211 213 212 215 222 228 234 239 242 250 258 262 268 272 277 282 286 291 296 298 297 296 296 296 293 291 290 289 291 296 300 300 302 307 311 314 317 315 316 315 310 311 317 317 314
217 217 217 218 219 218 217 216 215 213 212 212 211 211 211 210 209 209 209 209 209 208 208 206 205 205 203 203 203 204 204 205 205 204 203 203 203 203 206 209 212 216 217 218 224 231 236 240 246 253 258 263 267 272 278 282 286 292 296 297 296 295 295 294 291 289 289 287 289 296 299 296 299 304 306 308 312 312 314 316 313 313 317 317 316
219 219 220 221 220 218 216 215 213 212 212 212 211 211 210 209 207 207 207 207 207 207 207 206 206 206 204 203 204 205 205 205 204 204 205 205 206 207 208 211 214 218 221 222 225 232 238 241 247 253 259 265 270 274 279 283 287 292 294 294 293 292 290 290 288 288 287 286 289 293 291 291 297 302 303 306 311 312 311 312 310 311 313 314 313
220 221 222 222 220 217 216 214 213 213 212 211 211 210 209 208 208 208 206 206 206 205 205 206 206 207 206 205 206 206 206 205 204 204 205 205 208 209 210 213 218 221 222 224 228 234 239 243 246 252 259 266 271 275 280 284 288 289 289 290 289 289 290 289 288 289 287 286 288 288 286 287 294 300 302 307 311 310 309 309 306 306 305 303 301
221 222 222 221 220 218 216 214 213 213 212 212 211 210 209 209 208 208 208 207 206 204 204 206 207 207 207 206 207 207 206 204 203 204 204 206 208 209 211 215 220 224 225 225 230 236 241 244 245 248 256 263 270 277 282 285 287 286 285 286 286 289 292 291 291 290 287 285 283 284 287 288 291 297 302 306 307 306 306 307 307 307 303 299 298
221 223 223 221 220 218 216 215 214 214 213 212 211 210 210 210 210 210 209 207 206 204 204 204 206 207 208 207 208 208 207 204 204 204 202 204 209 210 212 217 221 225 227 227 233 238 242 246 246 245 252 262 272 281 285 288 288 286 284 285 286 289 292 293 295 294 290 287 283 286 292 292 289 297 307 310 306 304 304 306 309 308 304 300 297
222 223 223 222 220 218 216 215 215 214 213 212 211 212 212 211 211 210 208 207 207 206 205 205 206 207 207 208 207 207 207 205 204 203 200 201 208 212 212 217 222 225 227 230 235 240 243 246 248 249 255 264 274 283 288 289 287 286 286 286 289 293 295 298 301 301 299 297 293 293 298 301 300 305 312 313 308 304 304 303 303 304 303 303 303
222 223 223 222 220 218 216 215 215 214 213 211 212 212 212 212 211 209 208 208 208 208 208 208 208 206 206 206 206 206 207 205 202 203 200 197 203 213 214 216 221 225 228 232 236 241 245 248 253 259 263 268 275 281 286 287 285 287 289 292 296 299 300 305 309 308 308 307 305 304 305 306 305 304 306 307 305 305 306 304 304 307 307 307 308
222 223 224 223 222 220 217 216 215 214 212 211 212 213 214 213 211 208 206 206 207 207 208 208 208 207 206 206 206 205 206 204 201 203 202 195 197 208 214 216 221 226 229 234 238 243 248 252 260 267 271 275 279 283 285 286 286 289 292 297 301 302 305 313 315 313 312 310 308 308 307 305 305 305 307 310 310 312 311 306 309 314 311 306 308
224 224 226 225 223 220 218 216 216 214 213 213 213 214 213 212 211 209 207 206 207 208 208 207 208 209 208 207 207 206 205 202 200 203 204 199 197 204 211 215 221 227 231 236 242 246 251 255 261 268 274 279 284 285 286 287 287 290 294 298 300 301 308 317 316 312 312 310 309 310 309 310 312 313 315 316 318 318 311 304 308 311 304 300 302
229 229 229 228 224 221 219 217 216 215 215 214 214 214 213 210 210 210 208 208 207 207 206 205 206 208 209 209 208 207 205 202 200 204 206 202 201 205 211 215 221 227 232 238 244 247 251 255 259 267 275 281 284 287 288 288 288 291 295 296 294 299 310 316 313 311 312 310 310 312 312 314 315 316 318 319 321 322 315 309 310 305 296 296 300
236 235 233 230 225 222 220 218 217 217 217 216 215 213 212 209 207 207 207 207 207 206 204 204 204 206 208 208 207 207 206 203 203 206 208 205 205 208 212 217 222 227 232 237 243 248 251 255 260 267 275 281 284 288 288 289 290 292 293 291 292 301 311 312 308 310 310 309 311 312 313 315 317 318 320 322 324 325 322 317 313 303 295 294 296
242 238 234 230 225 223 220 219 219 219 218 216 213 211 210 208 205 204 204 204 204 203 201 201 202 204 206 208 208 207 207 207 207 208 209 208 208 210 215 221 225 228 232 237 244 248 251 256 262 267 273 279 282 284 286 288 290 292 294 296 300 306 309 307 306 309 308 308 310 311 312 316 318 319 322 323 324 326 324 320 315 307 298 292 291
244 239 234 229 225 222 220 219 219 218 216 213 209 207 207 206 204 202 200 201 200 199 198 198 199 202 205 208 209 208 209 210 210 209 210 210 211 215 219 225 228 229 232 239 244 248 253 258 264 267 270 275 278 280 285 288 291 295 299 304 307 308 307 304 305 308 308 309 310 310 313 317 319 321 322 322 323 324 321 318 316 310 304 297 292
244 238 232 227 223 221 219 218 217 214 212 209 205 204 203 201 201 199 198 198 197 195 194 195 196 199 203 206 209 210 210 211 211 210 211 213 215 218 222 227 230 231 234 241 246 251 256 259 262 266 268 272 276 279 285 289 293 299 304 307 309 308 305 304 307 309 310 310 309 309 313 318 319 320 321 321 321 322 321 320 319 316 312 307 301
242 235 231 226 222 220 217 216 214 211 209 205 202 200 199 197 197 197 196 196 194 192 192 192 195 198 200 204 208 211 211 211 211 211 213 215 217 220 223 227 231 232 237 244 249 253 257 260 263 266 267 270 275 280 285 290 295 301 306 309 309 307 305 307 311 312 310 309 309 310 313 318 319 318 319 320 322 324 325 325 323 320 317 314 311
239 234 230 224 221 218 215 214 211 209 206 203 199 198 196 194 194 194 195 195 194 192 191 192 195 198 200 203 207 210 211 211 211 212 214 217 219 221 224 227 231 234 238 245 250 253 257 260 262 265 267 271 276 280 285 291 298 303 308 309 308 308 310 313 315 313 309 308 310 312 314 317 318 318 320 322 325 328 328 327 325 323 322 320 317
239 235 229 225 222 216 212 210 208 207 205 202 201 199 196 193 193 193 194 195 195 194 193 194 197 200 202 204 207 208 209 209 211 214 215 217 220 221 223 227 232 236 241 246 251 253 254 256 259 263 267 271 274 280 287 294 300 305 309 311 311 313 317 319 317 312 309 310 313 314 315 318 319 321 325 327 328 330 330 328 326 325 326 325 321
238 234 228 224 219 212 209 206 204 204 203 201 201 201 199 196 194 193 194 194 194 195 195 197 199 200 202 205 207 206 205 207 211 214 215 216 218 219 221 225 229 233 238 243 246 248 250 253 257 262 265 268 273 280 288 296 302 307 310 313 317 320 323 321 318 314 312 314 316 316 317 320 323 326 330 330 329 331 332 330 327 325 327 327 322
236 232 228 222 216 211 207 204 201 200 200 200 200 199 199 198 197 197 198 195 192 194 197 199 200 201 202 204 204 201 202 207 212 214 214 215 216 216 218 221 225 229 235 239 242 245 249 252 256 259 262 267 274 281 288 297 304 308 312 316 320 324 325 322 319 318 319 319 319 319 321 324 327 329 331 330 330 331 333 331 328 326 328 328 323
235 231 225 218 213 209 206 203 201 199 199 201 202 203 203 202 201 202 204 203 201 199 199 201 203 203 204 203 199 196 201 211 216 217 217 217 216 217 219 222 226 231 236 239 241 243 245 248 251 255 260 267 275 283 292 302 307 308 312 318 322 324 325 323 322 323 324 323 322 323 326 327 328 331 332 330 328 331 332 331 330 328 328 327 321
230 226 220 214 211 206 202 201 201 199 199 199 201 205 208 208 207 206 206 209 209 207 203 203 205 205 205 205 204 203 208 215 218 219 220 220 220 222 224 227 232 236 237 237 237 238 240 244 247 253 260 266 276 286 297 304 306 308 312 319 322 323 324 325 326 325 325 324 325 327 329 329 329 331 331 328 327 329 331 332 331 331 329 326 320
225 221 217 212 209 204 200 198 198 198 199 198 198 199 203 208 211 212 210 211 211 210 207 207 208 207 205 206 208 209 213 218 220 220 222 223 222 222 224 227 231 234 234 231 229 229 233 238 244 252 260 267 276 287 296 301 302 305 312 319 321 323 324 326 327 326 324 326 328 330 331 331 330 330 329 327 326 328 330 333 334 332 329 326 320
225 221 218 213 209 204 199 197 196 195 196 197 196 195 194 195 203 211 214 214 212 208 207 208 210 210 208 207 207 207 210 216 220 222 225 224 221 218 219 219 221 224 226 225 224 226 230 236 244 254 261 268 277 287 294 297 298 303 311 315 317 321 325 325 324 323 324 327 329 331 333 333 332 329 327 327 327 328 330 332 333 332 329 326 322
228 224 218 210 205 202 198 195 194 193 193 193 193 193 192 187 184 191 202 208 209 207 206 207 209 210 209 209 209 209 210 214 218 220 219 216 212 210 209 210 214 218 218 216 218 223 229 237 248 256 262 269 280 288 292 294 298 304 309 311 313 318 322 322 321 322 324 328 330 332 335 336 332 329 328 328 329 330 330 330 331 332 330 326 323
231 226 219 210 202 198 196 195 193 192 193 193 192 192 194 191 185 182 183 187 194 199 203 206 209 209 208 208 210 211 213 215 217 217 212 205 202 200 201 205 210 215 217 218 221 226 234 242 250 259 264 271 281 288 290 294 299 304 308 310 312 316 318 319 320 322 325 329 332 334 336 335 332 329 329 329 330 330 329 330 331 330 329 326 323
231 226 220 211 203 197 195 195 193 191 191 192 192 193 193 191 189 187 184 182 183 188 194 200 204 207 208 207 208 211 214 215 216 215 210 202 197 195 196 199 202 206 212 219 225 232 240 247 254 261 268 275 282 287 290 296 301 304 307 310 312 314 315 317 319 321 325 329 332 334 335 332 329 329 329 329 330 330 328 329 330 328 327 325 322
227 221 215 207 201 197 194 192 191 191 191 191 191 190 190 189 187 187 186 185 185 186 187 190 195 201 206 208 210 212 213 212 211 210 207 203 200 197 196 198 202 206 212 219 227 235 243 250 257 264 270 277 284 287 291 296 300 304 307 308 309 311 313 315 317 320 325 328 330 333 333 329 327 330 331 329 329 329 328 328 328 327 326 324 321
222 215 208 201 197 194 191 189 190 190 191 190 189 186 186 187 187 185 183 184 186 187 185 183 183 185 193 202 207 209 209 209 208 206 204 204 203 203 204 206 208 212 218 224 232 240 247 253 259 266 272 278 284 288 292 295 299 303 305 305 306 308 310 312 316 319 323 326 328 331 331 328 328 330 331 329 328 328 329 330 329 327 326 325 323
219 212 206 199 194 190 187 184 186 187 185 185 185 184 184 184 185 184 183 183 185 186 183 181 180 181 185 191 196 199 199 197 195 195 196 198 201 204 208 212 215 220 227 233 238 244 251 257 262 267 273 279 284 288 291 294 297 300 302 303 304 306 308 310 314 319 321 323 327 330 329 326 327 330 330 328 328 328 329 331 331 328 326 326 325
214 208 204 198 192 188 185 181 180 181 181 180 181 183 184 183 183 184 183 182 184 186 183 181 184 187 186 185 186 189 188 186 185 186 190 195 200 205 209 214 220 226 233 238 242 247 254 259 262 267 274 279 283 286 288 292 295 297 299 301 302 304 306 309 314 318 320 321 324 328 327 324 326 329 329 328 328 329 330 331 332 330 327 324 323
206 201 199 195 190 186 183 180 179 180 180 180 180 181 183 184 184 184 184 183 184 186 185 185 188 191 189 187 186 187 186 186 188 190 192 196 202 207 211 217 224 230 236 241 245 251 256 259 262 268 274 278 281 283 285 289 293 295 296 299 300 302 306 310 314 317 318 319 323 325 324 324 325 327 328 330 331 332 332 332 333 332 329 325 323
200 194 192 190 186 182 180 180 182 183 183 182 182 182 184 186 186 185 185 185 186 188 189 190 192 193 194 194 194 193 192 193 195 197 199 202 206 210 216 222 228 234 240 246 250 254 257 259 263 269 272 273 276 280 284 287 290 292 294 296 297 300 305 310 313 313 313 316 321 323 322 323 326 327 329 332 333 333 334 335 336 335 333 329 327
196 190 187 184 182 180 179 180 182 183 183 184 185 186 186 187 187 187 186 186 188 189 190 192 195 197 199 201 201 199 199 200 202 204 207 209 212 217 222 228 233 239 245 250 255 257 259 261 264 266 267 270 274 278 281 284 286 288 291 293 295 300 306 309 310 310 311 315 320 322 322 323 325 326 329 332 333 334 336 338 340 338 335 332 331
196 189 184 182 182 181 180 180 181 182 184 186 188 188 188 187 188 189 188 188 189 191 191 191 193 197 201 204 205 204 204 207 210 211 213 215 218 223 228 233 238 244 249 253 257 258 258 259 259 258 262 268 272 276 278 280 283 286 288 291 295 301 306 308 307 308 311 316 320 321 322 323 324 327 330 334 334 335 339 341 341 340 336 333 332
193 187 182 181 181 181 181 182 182 184 187 187 188 188 188 188 189 190 190 189 190 192 194 193 192 193 197 201 203 206 209 213 216 217 219 221 224 228 234 238 241 246 250 253 254 252 249 249 249 253 261 266 269 273 275 277 281 285 287 291 297 301 304 306 306 308 313 317 320 321 321 322 324 327 331 335 337 338 340 343 342 340 337 336 334
188 182 178 179 180 179 180 182 183 184 185 185 187 189 189 188 189 190 190 191 190 191 194 196 195 194 194 196 200 206 212 216 219 220 223 226 229 233 237 239 242 246 249 249 245 239 237 240 245 252 259 263 266 269 272 274 280 285 287 291 297 301 302 303 303 308 314 317 320 321 320 321 325 329 332 337 341 340 340 342 342 340 338 337 334
187 182 180 180 179 178 179 180 181 183 183 184 186 188 189 190 191 191 190 191 190 189 191 194 195 195 195 197 202 208 213 216 218 221 224 228 231 233 234 234 238 243 243 238 232 229 231 238 246 253 258 260 262 264 268 273 280 284 286 292 297 299 300 301 303 309 316 318 318 319 319 320 325 330 332 336 340 338 337 340 342 341 339 337 335
189 186 183 181 179 178 179 180 181 183 185 185 186 187 189 190 192 192 192 192 191 191 192 193 194 195 197 200 205 210 214 217 219 222 225 227 228 227 226 229 233 236 234 229 226 228 233 240 246 252 255 255 256 260 266 274 279 281 286 293 297 297 298 301 305 310 316 318 317 317 318 320 324 329 333 336 338 335 336 339 342 341 340 339 337
192 188 183 181 179 179 181 182 183 184 185 185 186 188 189 190 192 193 193 193 193 193 195 195 195 197 200 204 209 213 217 219 222 224 225 225 223 221 222 226 230 231 230 228 228 231 237 241 244 248 250 250 253 259 267 272 276 280 286 292 294 295 298 304 308 312 317 317 316 317 317 319 323 328 332 335 335 333 335 339 341 341 340 340 340
194 188 183 182 183 183 184 185 186 185 185 185 186 188 189 190 192 193 193 195 196 196 197 198 199 201 204 207 211 215 218 220 223 224 223 221 219 219 221 226 229 229 229 229 230 232 234 236 239 242 245 246 251 259 266 270 273 279 287 291 292 295 301 306 310 314 316 314 314 315 315 316 320 327 331 332 331 330 333 337 339 340 340 340 341
195 190 187 186 187 188 189 189 188 188 187 186 187 188 189 190 193 194 194 195 197 197 198 200 202 204 207 209 212 215 218 220 222 222 221 219 219 220 223 226 228 228 227 226 225 226 228 231 235 239 240 243 251 259 264 267 272 279 286 288 290 296 304 310 313 314 313 312 312 311 309 312 320 327 330 329 327 328 333 337 339 339 340 340 341
199 194 192 190 189 189 190 189 189 189 189 189 189 190 190 191 194 196 196 197 198 198 199 202 204 207 211 213 215 217 220 221 222 222 221 220 220 222 224 225 225 224 223 220 219 220 225 229 232 234 236 241 250 257 260 263 271 280 285 287 290 299 309 313 312 312 311 309 307 306 305 312 322 327 328 327 325 326 331 337 338 339 340 340 341